Year,Month,Day,Hour,Minute,Value (Times are PST for temperature in C)
2008,06,28,00,00,12.40
2008,06,28,00,01,12.40
2008,06,28,00,02,12.40
2008,06,28,00,03,12.40
2008,06,28,00,04,12.40
2008,06,28,00,05,12.40
2008,06,28,00,06,12.40
2008,06,28,00,07,12.30
2008,06,28,00,08,12.30
2008,06,28,00,09,12.30
2008,06,28,00,10,12.40
2008,06,28,00,11,12.40
2008,06,28,00,12,12.40
2008,06,28,01,02,12.00
2008,06,28,01,03,12.00
2008,06,28,01,04,12.00
2008,06,28,01,05,12.00
2008,06,28,01,06,12.00
2008,06,28,01,07,12.00
2008,06,28,01,08,12.00
2008,06,28,01,09,12.00
2008,06,28,01,10,11.90
2008,06,28,01,11,11.90
2008,06,28,01,12,11.90
2008,06,28,01,13,11.90
2008,06,28,01,14,11.90
2008,06,28,01,15,12.00
2008,06,28,01,16,12.00
2008,06,28,01,17,12.00
2008,06,28,01,18,12.00
2008,06,28,01,19,12.00
2008,06,28,01,20,12.00
2008,06,28,01,21,12.00
2008,06,28,01,22,12.00
2008,06,28,01,23,12.10
2008,06,28,01,24,12.10
2008,06,28,01,25,12.10
2008,06,28,01,26,12.10
2008,06,28,01,27,12.10
2008,06,28,01,28,12.10
2008,06,28,01,29,12.00
2008,06,28,01,30,12.00
2008,06,28,01,31,12.00
2008,06,28,01,32,11.90
2008,06,28,01,33,11.90
2008,06,28,01,34,11.90
2008,06,28,01,35,11.80
2008,06,28,01,36,11.80
2008,06,28,01,37,11.80
2008,06,28,01,38,11.80
2008,06,28,01,39,11.90
2008,06,28,01,40,12.00
2008,06,28,01,41,12.00
2008,06,28,01,42,12.10
2008,06,28,01,43,12.10
2008,06,28,01,44,12.20
2008,06,28,01,45,12.20
2008,06,28,01,46,12.20
2008,06,28,01,47,12.20
2008,06,28,01,48,12.20
2008,06,28,01,49,12.20
2008,06,28,01,50,12.20
2008,06,28,01,51,12.20
2008,06,28,01,52,12.20
2008,06,28,01,53,12.20
2008,06,28,01,54,12.30
2008,06,28,01,55,12.30
2008,06,28,01,56,12.30
2008,06,28,01,57,12.30
2008,06,28,01,58,12.30
2008,06,28,01,59,12.30
2008,06,28,02,00,12.40
2008,06,28,02,01,12.40
2008,06,28,02,02,12.40
2008,06,28,02,03,12.40
2008,06,28,02,04,12.30
2008,06,28,02,05,12.30
2008,06,28,02,06,12.30
2008,06,28,02,07,12.30
2008,06,28,02,08,12.30
2008,06,28,02,09,12.30
2008,06,28,02,10,12.30
2008,06,28,02,11,12.30
2008,06,28,02,12,12.30
2008,06,28,02,13,12.30
2008,06,28,02,14,12.30
2008,06,28,02,15,12.30
2008,06,28,02,16,12.30
2008,06,28,02,17,12.30
2008,06,28,02,18,12.30
2008,06,28,02,19,12.30
2008,06,28,02,20,12.20
2008,06,28,02,21,12.20
2008,06,28,02,22,12.20
2008,06,28,02,23,12.10
2008,06,28,02,24,12.10
2008,06,28,02,25,12.00
2008,06,28,02,26,12.00
2008,06,28,02,27,11.90
2008,06,28,02,28,11.90
2008,06,28,02,29,11.90
2008,06,28,02,30,11.90
2008,06,28,02,31,11.80
2008,06,28,02,32,11.80
2008,06,28,02,33,11.80
2008,06,28,02,34,11.90
2008,06,28,02,35,11.90
2008,06,28,02,36,11.90
2008,06,28,02,37,12.00
2008,06,28,02,38,12.00
2008,06,28,02,39,12.10
2008,06,28,02,40,12.10
2008,06,28,02,41,12.10
2008,06,28,02,42,12.20
2008,06,28,02,43,12.20
2008,06,28,02,44,12.20
2008,06,28,02,45,12.30
2008,06,28,02,46,12.30
2008,06,28,02,47,12.30
2008,06,28,02,48,12.30
2008,06,28,02,49,12.30
2008,06,28,02,50,12.40
2008,06,28,02,51,12.40
2008,06,28,02,52,12.40
2008,06,28,02,53,12.40
2008,06,28,02,54,12.40
2008,06,28,02,55,12.40
2008,06,28,02,56,12.40
2008,06,28,02,57,12.40
2008,06,28,02,58,12.30
2008,06,28,02,59,12.30
2008,06,28,03,00,12.30
2008,06,28,03,01,12.30
2008,06,28,03,02,12.30
2008,06,28,03,03,12.30
2008,06,28,03,04,12.30
2008,06,28,03,05,12.30
2008,06,28,03,06,12.30
2008,06,28,03,07,12.30
2008,06,28,03,08,12.30
2008,06,28,03,09,12.30
2008,06,28,03,10,12.30
2008,06,28,03,11,12.30
2008,06,28,03,12,12.30
2008,06,28,03,13,12.30
2008,06,28,03,14,12.30
2008,06,28,03,15,12.30
2008,06,28,03,16,12.30
2008,06,28,03,17,12.30
2008,06,28,03,18,12.30
2008,06,28,03,19,12.30
2008,06,28,03,20,12.30
2008,06,28,03,21,12.20
2008,06,28,03,22,12.20
2008,06,28,03,23,12.20
2008,06,28,03,24,12.20
2008,06,28,03,25,12.30
2008,06,28,03,26,12.30
2008,06,28,03,27,12.20
2008,06,28,03,28,12.20
2008,06,28,03,29,12.20
2008,06,28,03,30,12.20
2008,06,28,03,31,12.20
2008,06,28,03,32,12.20
2008,06,28,03,33,12.20
2008,06,28,03,34,12.20
2008,06,28,03,35,12.20
2008,06,28,03,36,12.30
2008,06,28,03,37,12.30
2008,06,28,03,38,12.30
2008,06,28,03,39,12.30
2008,06,28,03,40,12.30
2008,06,28,03,41,12.30
2008,06,28,03,42,12.30
2008,06,28,03,43,12.40
2008,06,28,03,44,12.40
2008,06,28,03,45,12.40
2008,06,28,03,46,12.40
2008,06,28,03,47,12.40
2008,06,28,03,48,12.30
2008,06,28,03,49,12.30
2008,06,28,03,50,12.20
2008,06,28,03,51,12.10
2008,06,28,03,52,12.10
2008,06,28,03,53,12.10
2008,06,28,03,54,12.20
2008,06,28,03,55,12.20
2008,06,28,03,56,12.20
2008,06,28,03,57,12.20
2008,06,28,03,58,12.20
2008,06,28,03,59,12.20
2008,06,28,04,00,12.20
2008,06,28,04,01,12.20
2008,06,28,04,02,12.10
2008,06,28,04,03,12.10
2008,06,28,04,04,12.10
2008,06,28,04,05,12.00
2008,06,28,04,06,12.00
2008,06,28,04,07,12.00
2008,06,28,04,08,12.00
2008,06,28,04,09,12.00
2008,06,28,04,10,12.00
2008,06,28,04,11,12.00
2008,06,28,04,12,11.90
2008,06,28,04,13,11.90
2008,06,28,04,14,11.90
2008,06,28,04,15,11.80
2008,06,28,04,16,11.80
2008,06,28,04,17,11.80
2008,06,28,04,18,11.70
2008,06,28,04,19,11.70
2008,06,28,04,20,11.70
2008,06,28,04,21,11.70
2008,06,28,04,22,11.70
2008,06,28,04,23,11.60
2008,06,28,04,24,11.60
2008,06,28,04,25,11.60
2008,06,28,04,26,11.60
2008,06,28,04,27,11.60
2008,06,28,04,28,11.60
2008,06,28,04,29,11.60
2008,06,28,04,30,11.70
2008,06,28,04,31,11.70
2008,06,28,04,32,11.80
2008,06,28,04,33,11.80
2008,06,28,04,34,11.80
2008,06,28,04,35,11.80
2008,06,28,04,36,11.80
2008,06,28,04,37,11.70
2008,06,28,04,38,11.70
2008,06,28,04,39,11.70
2008,06,28,04,40,11.60
2008,06,28,04,41,11.60
2008,06,28,04,42,11.60
2008,06,28,04,43,11.60
2008,06,28,04,44,11.60
2008,06,28,04,45,11.50
2008,06,28,04,46,11.50
2008,06,28,04,47,11.40
2008,06,28,04,48,11.40
2008,06,28,04,49,11.40
2008,06,28,04,50,11.40
2008,06,28,04,51,11.40
2008,06,28,04,52,11.40
2008,06,28,04,53,11.30
2008,06,28,04,54,11.30
2008,06,28,04,55,11.30
2008,06,28,04,56,11.30
2008,06,28,04,57,11.30
2008,06,28,04,58,11.30
2008,06,28,04,59,11.30
2008,06,28,05,00,11.30
2008,06,28,05,01,11.30
2008,06,28,05,02,11.30
2008,06,28,05,03,11.30
2008,06,28,05,04,11.30
2008,06,28,05,05,11.30
2008,06,28,05,06,11.20
2008,06,28,05,07,11.20
2008,06,28,05,08,11.20
2008,06,28,05,09,11.20
2008,06,28,05,10,11.20
2008,06,28,05,11,11.10
2008,06,28,05,12,11.10
2008,06,28,05,13,11.10
2008,06,28,05,14,11.10
2008,06,28,05,15,11.10
2008,06,28,05,16,11.10
2008,06,28,05,17,11.10
2008,06,28,05,18,11.10
2008,06,28,05,19,11.20
2008,06,28,05,20,11.30
2008,06,28,05,21,11.30
2008,06,28,05,22,11.30
2008,06,28,05,23,11.20
2008,06,28,05,24,11.20
2008,06,28,05,25,11.20
2008,06,28,05,26,11.20
2008,06,28,05,27,11.20
2008,06,28,05,28,11.20
2008,06,28,05,29,11.20
2008,06,28,05,30,11.20
2008,06,28,05,31,11.20
2008,06,28,05,32,11.20
2008,06,28,05,33,11.20
2008,06,28,05,34,11.20
2008,06,28,05,35,11.20
2008,06,28,05,36,11.20
2008,06,28,05,37,11.20
2008,06,28,05,38,11.20
2008,06,28,05,39,11.10
2008,06,28,05,40,11.10
2008,06,28,05,41,11.10
2008,06,28,05,42,11.00
2008,06,28,05,43,11.00
2008,06,28,05,44,11.00
2008,06,28,05,45,11.00
2008,06,28,05,46,10.90
2008,06,28,05,47,10.90
2008,06,28,05,48,10.90
2008,06,28,05,49,10.90
2008,06,28,05,50,10.90
2008,06,28,05,51,10.90
2008,06,28,05,52,10.90
2008,06,28,05,53,10.90
2008,06,28,05,54,11.00
2008,06,28,05,55,11.00
2008,06,28,05,56,11.00
2008,06,28,05,57,11.10
2008,06,28,05,58,11.10
2008,06,28,05,59,11.20
2008,06,28,06,00,11.20
2008,06,28,06,01,11.20
2008,06,28,06,02,11.20
2008,06,28,06,03,11.20
2008,06,28,06,04,11.20
2008,06,28,06,05,11.20
2008,06,28,06,06,11.30
2008,06,28,06,07,11.40
2008,06,28,06,08,11.50
2008,06,28,06,09,11.50
2008,06,28,06,10,11.60
2008,06,28,06,11,11.60
2008,06,28,06,12,11.60
2008,06,28,06,13,11.60
2008,06,28,06,14,11.60
2008,06,28,06,15,11.70
2008,06,28,06,16,11.70
2008,06,28,06,17,11.80
2008,06,28,06,18,12.00
2008,06,28,06,19,12.00
2008,06,28,06,20,12.10
2008,06,28,06,21,12.10
2008,06,28,06,22,12.20
2008,06,28,06,23,12.20
2008,06,28,06,24,12.30
2008,06,28,06,25,12.30
2008,06,28,06,26,12.30
2008,06,28,06,27,12.30
2008,06,28,06,28,12.30
2008,06,28,06,29,12.30
2008,06,28,06,30,12.30
2008,06,28,06,31,12.30
2008,06,28,06,32,12.40
2008,06,28,06,33,12.40
2008,06,28,06,34,12.50
2008,06,28,06,35,12.60
2008,06,28,06,36,12.60
2008,06,28,06,37,12.60
2008,06,28,06,38,12.60
2008,06,28,06,39,12.60
2008,06,28,06,40,12.60
2008,06,28,06,41,12.70
2008,06,28,06,42,12.80
2008,06,28,06,43,12.80
2008,06,28,06,44,12.90
2008,06,28,06,45,12.90
2008,06,28,06,46,13.00
2008,06,28,06,47,13.10
2008,06,28,06,48,13.10
2008,06,28,06,49,13.20
2008,06,28,06,50,13.20
2008,06,28,06,51,13.30
2008,06,28,06,52,13.30
2008,06,28,06,53,13.40
2008,06,28,06,54,13.40
2008,06,28,06,55,13.50
2008,06,28,06,56,13.50
2008,06,28,06,57,13.60
2008,06,28,06,58,13.60
2008,06,28,06,59,13.70
2008,06,28,07,00,13.80
2008,06,28,07,01,13.80
2008,06,28,07,02,13.90
2008,06,28,07,03,13.90
2008,06,28,07,04,13.90
2008,06,28,07,05,14.00
2008,06,28,07,06,14.10
2008,06,28,07,07,14.10
2008,06,28,07,08,14.20
2008,06,28,07,09,14.20
2008,06,28,07,10,14.30
2008,06,28,07,11,14.30
2008,06,28,07,12,14.40
2008,06,28,07,13,14.40
2008,06,28,07,14,14.50
2008,06,28,07,15,14.50
2008,06,28,07,16,14.60
2008,06,28,07,17,14.70
2008,06,28,07,18,14.70
2008,06,28,07,19,14.80
2008,06,28,07,20,15.00
2008,06,28,07,21,15.00
2008,06,28,07,22,15.00
2008,06,28,07,23,15.00
2008,06,28,07,24,15.10
2008,06,28,07,25,15.20
2008,06,28,07,26,15.20
2008,06,28,07,27,15.30
2008,06,28,07,28,15.30
2008,06,28,07,29,15.40
2008,06,28,07,30,15.40
2008,06,28,07,31,15.50
2008,06,28,07,32,15.50
2008,06,28,07,33,15.60
2008,06,28,07,34,15.60
2008,06,28,07,35,15.70
2008,06,28,07,36,15.70
2008,06,28,07,37,15.70
2008,06,28,07,38,15.70
2008,06,28,07,39,15.70
2008,06,28,07,40,15.70
2008,06,28,07,41,15.80
2008,06,28,07,42,15.80
2008,06,28,07,43,15.80
2008,06,28,07,44,15.80
2008,06,28,07,45,15.80
2008,06,28,07,46,15.90
2008,06,28,07,47,15.90
2008,06,28,07,48,16.00
2008,06,28,07,49,16.00
2008,06,28,07,50,16.10
2008,06,28,07,51,16.20
2008,06,28,07,52,16.20
2008,06,28,07,53,16.20
2008,06,28,07,54,16.30
2008,06,28,07,55,16.30
2008,06,28,07,56,16.40
2008,06,28,07,57,16.50
2008,06,28,07,58,16.50
2008,06,28,07,59,16.60
2008,06,28,08,00,16.70
2008,06,28,08,01,16.80
2008,06,28,08,02,16.90
2008,06,28,08,03,16.90
2008,06,28,08,04,17.00
2008,06,28,08,05,17.10
2008,06,28,08,06,17.10
2008,06,28,08,07,17.20
2008,06,28,08,08,17.30
2008,06,28,08,09,17.40
2008,06,28,08,10,17.40
2008,06,28,08,11,17.50
2008,06,28,08,12,17.60
2008,06,28,08,13,17.60
2008,06,28,08,14,17.70
2008,06,28,08,15,17.70
2008,06,28,08,16,17.70
2008,06,28,08,17,17.80
2008,06,28,08,18,17.80
2008,06,28,08,19,17.80
2008,06,28,08,20,17.90
2008,06,28,08,21,17.90
2008,06,28,08,22,17.90
2008,06,28,08,23,18.00
2008,06,28,08,24,18.10
2008,06,28,08,25,18.20
2008,06,28,08,26,18.20
2008,06,28,08,27,18.30
2008,06,28,08,28,18.40
2008,06,28,08,29,18.50
2008,06,28,08,30,18.60
2008,06,28,08,31,18.70
2008,06,28,08,32,18.80
2008,06,28,08,33,18.80
2008,06,28,08,34,18.90
2008,06,28,08,35,18.80
2008,06,28,08,36,18.90
2008,06,28,08,37,18.90
2008,06,28,08,38,19.00
2008,06,28,08,39,19.10
2008,06,28,08,40,19.20
2008,06,28,08,41,19.20
2008,06,28,08,42,19.30
2008,06,28,08,43,19.30
2008,06,28,08,44,19.40
2008,06,28,08,45,19.40
2008,06,28,08,46,19.50
2008,06,28,08,47,19.60
2008,06,28,08,48,19.70
2008,06,28,08,49,19.80
2008,06,28,08,50,19.90
2008,06,28,08,51,20.00
2008,06,28,08,52,20.20
2008,06,28,08,53,20.30
2008,06,28,08,54,20.40
2008,06,28,08,55,20.40
2008,06,28,08,56,20.50
2008,06,28,08,57,20.60
2008,06,28,08,58,20.60
2008,06,28,08,59,20.70
2008,06,28,09,00,20.80
2008,06,28,09,01,20.90
2008,06,28,09,02,21.00
2008,06,28,09,03,21.00
2008,06,28,09,04,21.10
2008,06,28,09,05,21.10
2008,06,28,09,06,21.10
2008,06,28,09,07,21.10
2008,06,28,09,08,21.20
2008,06,28,09,09,21.30
2008,06,28,09,10,21.30
2008,06,28,09,11,21.40
2008,06,28,09,12,21.40
2008,06,28,09,13,21.40
2008,06,28,09,14,21.50
2008,06,28,09,15,21.50
2008,06,28,09,16,21.50
2008,06,28,09,17,21.40
2008,06,28,09,18,21.50
2008,06,28,09,19,21.50
2008,06,28,09,20,21.50
2008,06,28,09,21,21.50
2008,06,28,09,22,21.50
2008,06,28,09,23,21.60
2008,06,28,09,24,21.60
2008,06,28,09,25,21.60
2008,06,28,09,26,21.70
2008,06,28,09,27,21.70
2008,06,28,09,28,21.80
2008,06,28,09,29,21.80
2008,06,28,09,30,21.80
2008,06,28,09,31,21.80
2008,06,28,09,32,21.80
2008,06,28,09,33,21.90
2008,06,28,09,34,21.90
2008,06,28,09,35,21.90
2008,06,28,09,36,21.80
2008,06,28,09,37,21.80
2008,06,28,09,38,21.80
2008,06,28,09,39,21.80
2008,06,28,09,40,21.80
2008,06,28,09,41,21.80
2008,06,28,09,42,21.80
2008,06,28,09,43,21.60
2008,06,28,09,44,21.60
2008,06,28,09,45,21.50
2008,06,28,09,46,21.40
2008,06,28,09,47,21.40
2008,06,28,09,48,21.30
2008,06,28,09,49,21.30
2008,06,28,09,50,21.30
2008,06,28,09,51,21.20
2008,06,28,09,52,21.20
2008,06,28,09,53,21.20
2008,06,28,09,54,21.20
2008,06,28,09,55,21.30
2008,06,28,09,56,21.30
2008,06,28,09,57,21.30
2008,06,28,09,58,21.30
2008,06,28,09,59,21.30
2008,06,28,10,00,21.20
2008,06,28,10,01,21.10
2008,06,28,10,02,20.90
2008,06,28,10,03,20.80
2008,06,28,10,04,20.80
2008,06,28,10,05,20.70
2008,06,28,10,06,20.60
2008,06,28,10,07,20.60
2008,06,28,10,08,20.60
2008,06,28,10,09,20.60
2008,06,28,10,10,20.60
2008,06,28,10,11,20.60
2008,06,28,10,12,20.50
2008,06,28,10,13,20.50
2008,06,28,10,14,20.50
2008,06,28,10,15,20.50
2008,06,28,10,16,20.60
2008,06,28,10,17,20.60
2008,06,28,10,18,20.70
2008,06,28,10,19,20.70
2008,06,28,10,20,20.80
2008,06,28,10,21,20.90
2008,06,28,10,22,21.00
2008,06,28,10,23,21.10
2008,06,28,10,24,21.20
2008,06,28,10,25,21.30
2008,06,28,10,26,21.40
2008,06,28,10,27,21.50
2008,06,28,10,28,21.60
2008,06,28,10,29,21.80
2008,06,28,10,30,21.90
2008,06,28,10,31,21.90
2008,06,28,10,32,22.00
2008,06,28,10,33,22.10
2008,06,28,10,34,22.10
2008,06,28,10,35,22.20
2008,06,28,10,36,22.20
2008,06,28,10,37,22.20
2008,06,28,10,38,22.30
2008,06,28,10,39,22.30
2008,06,28,10,40,22.30
2008,06,28,10,41,22.30
2008,06,28,10,42,22.30
2008,06,28,10,43,22.30
2008,06,28,10,44,22.40
2008,06,28,10,45,22.30
2008,06,28,10,46,22.30
2008,06,28,10,47,22.30
2008,06,28,10,48,22.40
2008,06,28,10,49,22.50
2008,06,28,10,50,22.50
2008,06,28,10,51,22.60
2008,06,28,10,52,22.70
2008,06,28,10,53,22.80
2008,06,28,10,54,22.90
2008,06,28,10,55,22.90
2008,06,28,10,56,22.90
2008,06,28,10,57,23.00
2008,06,28,10,58,23.10
2008,06,28,10,59,23.20
2008,06,28,11,00,23.20
2008,06,28,11,01,23.20
2008,06,28,11,02,23.20
2008,06,28,11,03,23.20
2008,06,28,11,04,23.30
2008,06,28,11,05,23.40
2008,06,28,11,06,23.60
2008,06,28,11,07,23.70
2008,06,28,11,08,23.90
2008,06,28,11,09,24.10
2008,06,28,11,10,24.20
2008,06,28,11,11,24.20
2008,06,28,11,12,24.20
2008,06,28,11,13,24.30
2008,06,28,11,14,24.20
2008,06,28,11,15,24.20
2008,06,28,11,16,24.30
2008,06,28,11,17,24.30
2008,06,28,11,18,24.40
2008,06,28,11,19,24.40
2008,06,28,11,20,24.40
2008,06,28,11,21,24.40
2008,06,28,11,22,24.40
2008,06,28,11,23,24.40
2008,06,28,11,24,24.40
2008,06,28,11,25,24.30
2008,06,28,11,26,24.30
2008,06,28,11,27,24.30
2008,06,28,11,28,24.30
2008,06,28,11,29,24.20
2008,06,28,11,30,24.20
2008,06,28,11,31,24.20
2008,06,28,11,32,24.20
2008,06,28,11,33,24.20
2008,06,28,11,34,24.10
2008,06,28,11,35,24.10
2008,06,28,11,36,24.00
2008,06,28,11,37,23.90
2008,06,28,11,38,23.80
2008,06,28,11,39,23.80
2008,06,28,11,40,23.70
2008,06,28,11,41,23.70
2008,06,28,11,42,23.60
2008,06,28,11,43,23.60
2008,06,28,11,44,23.60
2008,06,28,11,45,23.60
2008,06,28,11,46,23.60
2008,06,28,11,47,23.70
2008,06,28,11,48,23.70
2008,06,28,11,49,23.80
2008,06,28,11,50,23.80
2008,06,28,11,51,23.80
2008,06,28,11,52,23.80
2008,06,28,11,53,23.80
2008,06,28,11,54,23.90
2008,06,28,11,55,24.00
2008,06,28,11,56,24.00
2008,06,28,11,57,24.10
2008,06,28,11,58,24.20
2008,06,28,11,59,24.30
2008,06,28,12,00,24.30
2008,06,28,12,01,24.30
2008,06,28,12,02,24.40
2008,06,28,12,03,24.50
2008,06,28,12,04,24.60
2008,06,28,12,05,24.60
2008,06,28,12,06,24.70
2008,06,28,12,07,24.80
2008,06,28,12,08,24.80
2008,06,28,12,09,24.80
2008,06,28,12,10,24.90
2008,06,28,12,11,25.00
2008,06,28,12,12,25.10
2008,06,28,12,13,25.10
2008,06,28,12,14,25.20
2008,06,28,12,15,25.20
2008,06,28,12,16,25.20
2008,06,28,12,17,25.10
2008,06,28,12,18,24.90
2008,06,28,12,19,24.80
2008,06,28,12,20,24.80
2008,06,28,12,21,24.70
2008,06,28,12,22,24.70
2008,06,28,12,23,24.70
2008,06,28,12,24,24.70
2008,06,28,12,25,24.80
2008,06,28,12,26,24.90
2008,06,28,12,27,24.90
2008,06,28,12,28,24.90
2008,06,28,12,29,24.90
2008,06,28,12,30,24.90
2008,06,28,12,31,24.80
2008,06,28,12,32,24.70
2008,06,28,12,33,24.60
2008,06,28,12,34,24.50
2008,06,28,12,35,24.40
2008,06,28,12,36,24.30
2008,06,28,12,37,24.20
2008,06,28,12,38,24.20
2008,06,28,12,39,24.10
2008,06,28,12,40,24.10
2008,06,28,12,41,24.00
2008,06,28,12,42,24.00
2008,06,28,12,43,24.00
2008,06,28,12,44,23.90
2008,06,28,12,45,23.90
2008,06,28,12,46,23.90
2008,06,28,12,47,24.00
2008,06,28,12,48,24.10
2008,06,28,12,49,24.10
2008,06,28,12,50,24.10
2008,06,28,12,51,24.10
2008,06,28,12,52,24.10
2008,06,28,12,53,24.10
2008,06,28,12,54,24.20
2008,06,28,12,55,24.20
2008,06,28,12,56,24.20
2008,06,28,12,57,24.20
2008,06,28,12,58,24.30
2008,06,28,12,59,24.30
2008,06,28,13,00,24.30
2008,06,28,13,01,24.20
2008,06,28,13,02,24.20
2008,06,28,13,03,24.20
2008,06,28,13,04,24.10
2008,06,28,13,05,24.10
2008,06,28,13,06,24.00
2008,06,28,13,07,24.00
2008,06,28,13,08,24.00
2008,06,28,13,09,23.90
2008,06,28,13,10,24.00
2008,06,28,13,11,24.10
2008,06,28,13,12,24.20
2008,06,28,13,13,24.30
2008,06,28,13,14,24.30
2008,06,28,13,15,24.40
2008,06,28,13,16,24.40
2008,06,28,13,17,24.50
2008,06,28,13,18,24.40
2008,06,28,13,19,24.40
2008,06,28,13,20,24.50
2008,06,28,13,21,24.50
2008,06,28,13,22,24.60
2008,06,28,13,23,24.70
2008,06,28,13,24,24.70
2008,06,28,13,25,24.80
2008,06,28,13,26,24.80
2008,06,28,13,27,24.90
2008,06,28,13,28,25.00
2008,06,28,13,29,25.10
2008,06,28,13,30,25.10
2008,06,28,13,31,25.20
2008,06,28,13,32,25.30
2008,06,28,13,33,25.40
2008,06,28,13,34,25.50
2008,06,28,13,35,25.60
2008,06,28,13,36,25.70
2008,06,28,13,37,25.70
2008,06,28,13,38,25.70
2008,06,28,13,39,25.80
2008,06,28,13,40,25.80
2008,06,28,13,41,25.80
2008,06,28,13,42,25.80
2008,06,28,13,43,25.80
2008,06,28,13,44,25.90
2008,06,28,13,45,25.90
2008,06,28,13,46,25.90
2008,06,28,13,47,25.80
2008,06,28,13,48,25.70
2008,06,28,13,49,25.70
2008,06,28,13,50,25.70
2008,06,28,13,51,25.80
2008,06,28,13,52,25.80
2008,06,28,13,53,25.70
2008,06,28,13,54,25.70
2008,06,28,13,55,25.60
2008,06,28,13,56,25.60
2008,06,28,13,57,25.50
2008,06,28,13,58,25.50
2008,06,28,13,59,25.40
2008,06,28,14,00,25.30
2008,06,28,14,01,25.20
2008,06,28,14,02,25.30
2008,06,28,14,03,25.30
2008,06,28,14,04,25.30
2008,06,28,14,05,25.30
2008,06,28,14,06,25.20
2008,06,28,14,07,25.10
2008,06,28,14,08,25.10
2008,06,28,14,09,25.10
2008,06,28,14,10,25.10
2008,06,28,14,11,25.20
2008,06,28,14,12,25.30
2008,06,28,14,13,25.40
2008,06,28,14,14,25.50
2008,06,28,14,15,25.50
2008,06,28,14,16,25.60
2008,06,28,14,17,25.60
2008,06,28,14,18,25.50
2008,06,28,14,19,25.40
2008,06,28,14,20,25.40
2008,06,28,14,21,25.40
2008,06,28,14,22,25.40
2008,06,28,14,23,25.50
2008,06,28,14,24,25.60
2008,06,28,14,25,25.70
2008,06,28,14,26,25.80
2008,06,28,14,27,25.90
2008,06,28,14,28,26.10
2008,06,28,14,29,26.20
2008,06,28,14,30,26.20
2008,06,28,14,31,26.20
2008,06,28,14,32,26.30
2008,06,28,14,33,26.30
2008,06,28,14,34,26.20
2008,06,28,14,35,26.20
2008,06,28,14,36,26.10
2008,06,28,14,37,25.90
2008,06,28,14,38,25.90
2008,06,28,14,39,25.80
2008,06,28,14,40,25.80
2008,06,28,14,41,25.90
2008,06,28,14,42,25.90
2008,06,28,14,43,25.90
2008,06,28,14,44,25.90
2008,06,28,14,45,25.90
2008,06,28,14,46,25.90
2008,06,28,14,47,25.80
2008,06,28,14,48,25.80
2008,06,28,14,49,25.60
2008,06,28,14,50,25.50
2008,06,28,14,51,25.50
2008,06,28,14,52,25.40
2008,06,28,14,53,25.30
2008,06,28,14,54,25.20
2008,06,28,14,55,25.10
2008,06,28,14,56,25.00
2008,06,28,14,57,24.90
2008,06,28,14,58,24.80
2008,06,28,14,59,24.80
2008,06,28,15,00,24.70
2008,06,28,15,01,24.60
2008,06,28,15,02,24.40
2008,06,28,15,03,24.20
2008,06,28,15,04,23.90
2008,06,28,15,05,23.60
2008,06,28,15,06,23.40
2008,06,28,15,07,23.30
2008,06,28,15,08,23.10
2008,06,28,15,09,23.00
2008,06,28,15,10,23.00
2008,06,28,15,11,23.00
2008,06,28,15,12,23.00
2008,06,28,15,13,23.10
2008,06,28,15,14,23.10
2008,06,28,15,15,23.20
2008,06,28,15,16,23.30
2008,06,28,15,17,23.30
2008,06,28,15,18,23.40
2008,06,28,15,19,23.40
2008,06,28,15,20,23.50
2008,06,28,15,21,23.50
2008,06,28,15,22,23.60
2008,06,28,15,23,23.60
2008,06,28,15,24,23.70
2008,06,28,15,25,23.70
2008,06,28,15,26,23.80
2008,06,28,15,27,24.00
2008,06,28,15,28,24.10
2008,06,28,15,29,24.30
2008,06,28,15,30,24.40
2008,06,28,15,31,24.60
2008,06,28,15,32,24.70
2008,06,28,15,33,24.90
2008,06,28,15,34,25.10
2008,06,28,15,35,25.20
2008,06,28,15,36,25.30
2008,06,28,15,37,25.40
2008,06,28,15,38,25.40
2008,06,28,15,39,25.50
2008,06,28,15,40,25.60
2008,06,28,15,41,25.60
2008,06,28,15,42,25.70
2008,06,28,15,43,25.80
2008,06,28,15,44,25.80
2008,06,28,15,45,25.90
2008,06,28,15,46,25.90
2008,06,28,15,47,25.90
2008,06,28,15,48,26.00
2008,06,28,15,49,26.10
2008,06,28,15,50,26.20
2008,06,28,15,51,26.20
2008,06,28,15,52,26.30
2008,06,28,15,53,26.30
2008,06,28,15,54,26.40
2008,06,28,15,55,26.40
2008,06,28,15,56,26.40
2008,06,28,15,57,26.40
2008,06,28,15,58,26.40
2008,06,28,15,59,26.40
2008,06,28,16,00,26.40
2008,06,28,16,01,26.40
2008,06,28,16,02,26.40
2008,06,28,16,03,26.40
2008,06,28,16,04,26.40
2008,06,28,16,05,26.30
2008,06,28,16,06,26.30
2008,06,28,16,07,26.30
2008,06,28,16,08,26.20
2008,06,28,16,09,26.10
2008,06,28,16,10,26.10
2008,06,28,16,11,26.10
2008,06,28,16,12,26.00
2008,06,28,16,13,26.00
2008,06,28,16,14,26.00
2008,06,28,16,15,26.00
2008,06,28,16,16,25.90
2008,06,28,16,17,25.90
2008,06,28,16,18,25.90
2008,06,28,16,19,25.80
2008,06,28,16,20,25.80
2008,06,28,16,21,25.80
2008,06,28,16,22,25.80
2008,06,28,16,23,25.80
2008,06,28,16,24,25.80
2008,06,28,16,25,25.90
2008,06,28,16,26,25.90
2008,06,28,16,27,25.90
2008,06,28,16,28,26.00
2008,06,28,16,29,26.10
2008,06,28,16,30,26.10
2008,06,28,16,31,26.20
2008,06,28,16,32,26.20
2008,06,28,16,33,26.20
2008,06,28,16,34,26.20
2008,06,28,16,35,26.10
2008,06,28,16,36,26.00
2008,06,28,16,37,25.90
2008,06,28,16,38,25.90
2008,06,28,16,39,25.80
2008,06,28,16,40,25.80
2008,06,28,16,41,25.80
2008,06,28,16,42,25.80
2008,06,28,16,43,25.70
2008,06,28,16,44,25.70
2008,06,28,16,45,25.70
2008,06,28,16,46,25.60
2008,06,28,16,47,25.50
2008,06,28,16,48,25.50
2008,06,28,16,49,25.50
2008,06,28,16,50,25.40
2008,06,28,16,51,25.40
2008,06,28,16,52,25.40
2008,06,28,16,53,25.40
2008,06,28,16,54,25.40
2008,06,28,16,55,25.40
2008,06,28,16,56,25.40
2008,06,28,16,57,25.30
2008,06,28,16,58,25.30
2008,06,28,16,59,25.30
2008,06,28,17,00,25.20
2008,06,28,17,01,25.20
2008,06,28,17,02,25.20
2008,06,28,17,03,25.20
2008,06,28,17,04,25.20
2008,06,28,17,05,25.20
2008,06,28,17,06,25.20
2008,06,28,17,07,25.30
2008,06,28,17,08,25.30
2008,06,28,17,09,25.30
2008,06,28,17,10,25.30
2008,06,28,17,11,25.30
2008,06,28,17,12,25.30
2008,06,28,17,13,25.30
2008,06,28,17,14,25.30
2008,06,28,17,15,25.40
2008,06,28,17,16,25.40
2008,06,28,17,17,25.40
2008,06,28,17,18,25.40
2008,06,28,17,19,25.40
2008,06,28,17,20,25.50
2008,06,28,17,21,25.50
2008,06,28,17,22,25.50
2008,06,28,17,23,25.40
2008,06,28,17,24,25.40
2008,06,28,17,25,25.40
2008,06,28,17,26,25.40
2008,06,28,17,27,25.40
2008,06,28,17,28,25.40
2008,06,28,17,29,25.40
2008,06,28,17,30,25.40
2008,06,28,17,31,25.40
2008,06,28,17,32,25.40
2008,06,28,17,33,25.40
2008,06,28,17,34,25.40
2008,06,28,17,35,25.50
2008,06,28,17,36,25.50
2008,06,28,17,37,25.50
2008,06,28,17,38,25.40
2008,06,28,17,39,25.30
2008,06,28,17,40,25.30
2008,06,28,17,41,25.20
2008,06,28,17,42,25.20
2008,06,28,17,43,25.10
2008,06,28,17,44,25.10
2008,06,28,17,45,25.10
2008,06,28,17,46,25.20
2008,06,28,17,47,25.20
2008,06,28,17,48,25.20
2008,06,28,17,49,25.20
2008,06,28,17,50,25.30
2008,06,28,17,51,25.30
2008,06,28,17,52,25.30
2008,06,28,17,53,25.30
2008,06,28,17,54,25.30
2008,06,28,17,55,25.40
2008,06,28,17,56,25.40
2008,06,28,17,57,25.40
2008,06,28,17,58,25.50
2008,06,28,17,59,25.50
2008,06,28,18,00,25.60
2008,06,28,18,01,25.60
2008,06,28,18,02,25.60
2008,06,28,18,03,25.60
2008,06,28,18,04,25.60
2008,06,28,18,05,25.50
2008,06,28,18,06,25.50
2008,06,28,18,07,25.40
2008,06,28,18,08,25.40